This demonstration page uses our WeatherBlox Daily Observations layout. Learn more.

Left ArrowRight Arrow

38.88101, -77.10428

Hourly Observations for May 1, 2015

Temp ( °F °C ) Dew Point ( °F °C ) Humidity (%) Winds ( mph kmh ) Pressure ( in mb ) Visibility ( mi km ) Precip ( " mm )
12:52 am 00:52 Mostly Cloudy 60 15.6 50 10 70 70 ENE 14 22 29.83 1010 10 16 0.00 0.00
1:52 am 01:52 Mostly Cloudy 59 15 49 9.4 69 69 NE 12 19 29.83 1010 10 16 0.00 0.00
2:45 am 02:45 Cloudy 57 14 48 9 72 72 NE 14 22 29.83 1010 10 16 0.00 0.00
2:52 am 02:52 Cloudy 57 13.9 48 8.9 72 72 ENE 13 20 29.83 1010 10 16 0.00 0.00
3:17 am 03:17 Cloudy 57 14 48 9 72 72 NE 14 22 29.83 1010 10 16 0.00 0.00
3:34 am 03:34 Cloudy with Thunderstorms 55 13 48 9 77 77 NNE 9 15 29.83 1010 10 16 0.00 0.00
3:52 am 03:52 Cloudy with Thunderstorms 54 12.2 50 10 87 87 NE 14 22 29.84 1011 5 8 0.06 1.52
4:00 am 04:00 Cloudy with Light Rain 55 13 50 10 82 82 NE 8 13 29.85 1011 9 14 0.00 0.00
4:09 am 04:09 Cloudy with Light Rain 55 13 50 10 82 82 NE 9 15 29.85 1011 10 16 0.05 1.27
4:15 am 04:15 Cloudy 55 13 50 10 82 82 NE 7 11 29.85 1011 10 16 0.05 1.27
4:52 am 04:52 Cloudy 56 13.3 50 10 81 81 NNE 9 15 29.85 1011 10 16 0.05 1.27
5:52 am 05:52 Cloudy 56 13.3 49 9.4 77 77 NE 10 17 29.86 1011 10 16 0.00 0.00
6:06 am 06:06 Cloudy 55 13 50 10 82 82 NE 9 15 29.88 1012 10 16 0.00 0.00
6:29 am 06:29 Cloudy 55 13 50 10 82 82 NNE 13 20 29.88 1012 10 16 0.00 0.00
6:41 am 06:41 Cloudy 55 13 48 9 77 77 NNE 16 26 29.88 1012 10 16 0.00 0.03
6:52 am 06:52 Cloudy with Light Rain 55 12.8 49 9.4 80 80 NE 15 24 29.88 1012 10 16 0.00 0.03
7:31 am 07:31 Cloudy 55 13 48 9 77 77 NE 12 19 29.91 1013 10 16 0.00 0.00
7:45 am 07:45 Cloudy 55 13 48 9 77 77 NE 10 17 29.91 1013 10 16 0.00 0.00
7:52 am 07:52 Cloudy 55 12.8 48 8.9 77 77 NE 12 19 29.90 1013 10 16 0.00 0.00
8:52 am 08:52 Cloudy 57 13.9 47 8.3 69 69 NNE 12 19 29.93 1014 10 16 0.00 0.00
9:52 am 09:52 Cloudy 57 13.9 46 7.8 67 67 NE 14 22 29.95 1014 10 16 0.00 0.00
10:52 am 10:52 Cloudy 58 14.4 45 7.2 62 62 ENE 10 17 29.97 1015 10 16 0.00 0.00
11:52 am 11:52 Cloudy 59 15 46 7.8 62 62 ENE 6 9 29.96 1015 10 16 0.00 0.00
12:52 pm 12:52 Cloudy 61 16.1 46 7.8 58 58 NE 8 13 29.97 1015 10 16 0.00 0.00
1:52 pm 13:52 Cloudy 61 16.1 44 6.7 54 54 VRB 5 7 29.96 1015 10 16 0.00 0.00
2:52 pm 14:52 Cloudy 63 17.2 44 6.7 50 50 N 5 7 29.96 1014 10 16 0.00 0.00
3:52 pm 15:52 Cloudy 63 17.2 44 6.7 50 50 E 6 9 29.94 1014 10 16 0.00 0.00
4:52 pm 16:52 Cloudy 61 16.1 46 7.8 58 58 ESE 6 9 29.93 1014 10 16 0.00 0.00
5:52 pm 17:52 Cloudy 62 16.7 45 7.2 54 54 E 6 9 29.93 1014 10 16 0.00 0.00
6:52 pm 18:52 Cloudy 61 16.1 45 7.2 56 56 ESE 6 9 29.93 1014 10 16 0.00 0.00
7:52 pm 19:52 Cloudy 64 18 46 8 52 52 WNW 15 24 29.74 1007 10 16 0.00 0.00
8:52 pm 20:52 Mostly Cloudy 59 15 44 6.7 58 58 E 3 6 29.96 1015 10 16 0.00 0.00
9:52 pm 21:52 Cloudy 59 15 43 6.1 56 56 Calm 29.98 1015 10 16 0.00 0.00
10:52 pm 22:52 Mostly Cloudy 59 15 44 6.7 58 58 Calm 29.98 1015 10 16 0.00 0.00
11:52 pm 23:52 Cloudy 57 13.9 45 7.2 64 64 Calm 29.97 1015 10 16 0.00 0.00

Powered by AerisWeather